Traverse City, MI

2:55 AM EDT on May 26, 2017 (GMT -0400)
Cherry Capital

Weather History for KTVC - April, 2013

Change the Weather History Date:

Saturday, April 27, 2013

  Actual Average Record
Temperature  
Mean Temperature 59 °F 47 °F  
Max Temperature 73 °F 59 °F 88 °F (1986)
Min Temperature 45 °F 36 °F 22 °F (1909)
Degree Days  
Heating Degree Days 6 18  
Month to date heating degree days 684 614  
Since 1 July heating degree days 6644 7016  
Cooling Degree Days 0 0  
Month to date cooling degree days 0 0  
Year to date cooling degree days 0 0  
Growing Degree Days 11 (Base 50)    
Moisture  
Dew Point 41 °F    
Average Humidity 48    
Maximum Humidity 71    
Minimum Humidity 24    
Precipitation  
Precipitation 0.05 in 0.08 in 0.85 in (1995)
Month to date precipitation 4.20 2.52  
Year to date precipitation 9.31 8.70  
Sea Level Pressure  
Sea Level Pressure 30.16 in    
Wind  
Wind Speed 7 mph (SW)    
Max Wind Speed 16 mph    
Max Gust Speed 24 mph    
Visibility 10 miles    
Events Rain    
T = Trace of Precipitation, MM = Missing Value Source: NWS Daily Summary

Daily Weather History Graph

Daily Weather History Graph

Search for Another Location

Airport or City:

Trip Planner

Search our weather history database for the weather conditions in past years. The results will help you decide how hot, cold, wet, or windy it might be!

Date:

Astronomy

Apr. 27, 2013 Rise Set
Actual Time 6:37 AM EDT 8:42 PM EDT
Civil Twilight 6:06 AM EDT 9:14 PM EDT
Nautical Twilight 5:27 AM EDT 9:53 PM EDT
Astronomical Twilight 4:44 AM EDT 10:37 PM EDT
Moon 11:15 PM EDT (4/27) 7:51 AM EDT (4/27)
Length of Visible Light 15h 08m
Length of Day
14h 04m
Waning Gibbous, 95% of the Moon is Illuminated
Apr 27
Waning Gibbous
May 2
Last Quarter
May 9
New
May 18
First Quarter
May 25
Full

Hourly Weather History & Observations

Time (EDT) Temp. Dew Point Humidity Pressure Visibility Wind Dir Wind Speed Gust Speed Precip Events Conditions
12:53 AM 57.9 °F 39.9 °F 51% 30.20 in 10.0 mi WSW 5.8 mph - N/A   Mostly Cloudy
1:53 AM 55.0 °F 45.0 °F 69% 30.21 in 10.0 mi SSW 6.9 mph - 0.03 in   Overcast
2:53 AM 54.0 °F 45.0 °F 72% 30.22 in 10.0 mi SW 5.8 mph - 0.00 in Rain Light Rain
3:53 AM 54.0 °F 46.0 °F 75% 30.21 in 9.0 mi SW 5.8 mph - 0.01 in Rain Light Rain
4:53 AM 53.1 °F 46.0 °F 77% 30.20 in 10.0 mi Variable 4.6 mph - 0.01 in   Overcast
5:53 AM 54.0 °F 45.0 °F 72% 30.19 in 10.0 mi SSW 5.8 mph - N/A   Mostly Cloudy
6:53 AM 54.0 °F 44.1 °F 69% 30.20 in 10.0 mi SW 6.9 mph - N/A   Mostly Cloudy
7:53 AM 54.0 °F 44.1 °F 69% 30.21 in 10.0 mi SSW 5.8 mph - N/A   Partly Cloudy
8:53 AM 55.9 °F 44.1 °F 64% 30.22 in 10.0 mi SW 5.8 mph - N/A   Mostly Cloudy
9:53 AM 60.1 °F 45.0 °F 57% 30.21 in 10.0 mi WSW 9.2 mph - N/A   Partly Cloudy
10:53 AM 62.1 °F 44.1 °F 52% 30.21 in 10.0 mi SW 12.7 mph 24.2 mph N/A   Mostly Cloudy
11:53 AM 64.9 °F 44.1 °F 47% 30.20 in 10.0 mi WSW 10.4 mph 18.4 mph N/A   Mostly Cloudy
12:53 PM 68.0 °F 45.0 °F 43% 30.19 in 10.0 mi West 10.4 mph 19.6 mph N/A   Mostly Cloudy
1:53 PM 69.1 °F 44.1 °F 40% 30.17 in 10.0 mi Variable 3.5 mph - N/A   Mostly Cloudy
2:53 PM 71.1 °F 39.0 °F 31% 30.15 in 10.0 mi West 9.2 mph 17.3 mph N/A   Scattered Clouds
3:53 PM 72.0 °F 37.0 °F 28% 30.13 in 10.0 mi WSW 11.5 mph 16.1 mph N/A   Scattered Clouds
4:53 PM 72.0 °F 32.0 °F 23% 30.10 in 10.0 mi SW 11.5 mph 18.4 mph N/A   Scattered Clouds
5:53 PM 71.1 °F 37.9 °F 30% 30.09 in 10.0 mi WSW 11.5 mph - N/A   Partly Cloudy
6:53 PM 70.0 °F 37.9 °F 31% 30.08 in 10.0 mi West 10.4 mph - N/A   Partly Cloudy
7:53 PM 64.9 °F 37.9 °F 37% 30.07 in 10.0 mi West 9.2 mph - N/A   Partly Cloudy
8:53 PM 62.1 °F 36.0 °F 38% 30.08 in 10.0 mi SW 4.6 mph - N/A   Partly Cloudy
9:53 PM 54.0 °F 37.9 °F 55% 30.08 in 10.0 mi Calm Calm - N/A   Clear
10:53 PM 50.0 °F 37.9 °F 63% 30.09 in 10.0 mi Calm Calm - N/A   Clear
11:53 PM 48.0 °F 37.9 °F 68% 30.08 in 10.0 mi Calm Calm - N/A   Clear